Location: Bernadets
(43.3537°N, 0.3167°E)
Time: 23:21:23
(UTC+00:00)

ATLAS 3B R/B - Pass Details

Date: 24 October 2021
Orbit: 989 x 1206 km, 63.8° (Epoch: 25 November)

Event Time Altitude Azimuth Distance (km) Brightness Sun altitude
Rises 17:39:13 0° 256° (WSW) 3,727 8.1 -7.6°
Reaches altitude 10° 17:42:11 10° 268° (W) 2,802 6.6 -8.1°
Maximum altitude 17:47:44 28° 326° (NW) 1,862 4.3 -9.1°
Drops below altitude 10° 17:53:32 10° 23° (NNE) 2,928 4.7 -10.1°
Sets 17:56:44 0° 35° (NE) 3,926 5.3 -10.7°
